WX6HNX-14 Weather Reports


time (UTC)temp
F
wind
direction
speed
knots
gust
knots
rain 1hr
in
rain 24hr
in
rain mn
in
humidity
%
barometer
mb
20260507004525 78 15 0.9 7.0 0.00 0.00 0.00 43 1016.5
20260507004025 78 21 1.7 7.8 0.00 0.00 0.00 43 1016.5
20260507003525 78 11 5.2 7.8 0.00 0.00 0.00 42 1016.5
20260507002613 78 315 3.5 7.0 0.00 0.00 0.00 43 1016.5
20260507002114 78 328 3.5 7.0 0.00 0.00 0.00 43 1016.5
20260507001613 78 0 0.0 7.8 0.00 0.00 0.00 43 1016.5
20260507001113 78 335 2.6 8.7 0.00 0.00 0.00 43 1016.5
20260507000613 78 2 3.5 8.7 0.00 0.00 0.00 43 1016.5
20260507000114 78 12 4.3 8.7 0.00 0.00 0.00 43 1016.4
20260506235614 78 356 1.7 10.4 0.00 0.00 0.00 43 1016.5
20260506235113 78 27 2.6 10.4 0.00 0.00 0.00 43 1016.5
20260506234613 78 343 6.1 13.9 0.00 0.00 0.00 44 1016.5
20260506234113 78 335 6.1 13.9 0.00 0.00 0.00 43 1016.5
20260506233613 77 2 4.3 8.7 0.00 0.00 0.00 43 1016.4
20260506233114 77 24 2.6 11.3 0.00 0.00 0.00 44 1016.5
20260506232613 77 27 2.6 13.0 0.00 0.00 0.00 44 1016.5
20260506232113 77 327 6.1 13.0 0.00 0.00 0.00 43 1016.6
20260506231613 77 337 4.3 11.3 0.00 0.00 0.00 43 1016.7
20260506231113 78 313 7.0 11.3 0.00 0.00 0.00 43 1016.7
20260506230613 78 328 2.6 7.0 0.00 0.00 0.00 42 1016.8
20260506230113 78 0 0.0 7.8 0.00 0.00 0.00 42 1016.8
20260506225613 78 344 3.5 7.8 0.00 0.00 0.00 42 1016.9
20260506224855 78 289 4.3 7.8 0.00 0.00 0.00 42 1016.9
20260506224355 77 1 4.3 7.8 0.00 0.00 0.00 43 1017.0
20260506223855 77 353 0.9 8.7 0.00 0.00 0.00 43 1017.0
20260506223355 77 59 4.3 8.7 0.00 0.00 0.00 43 1017.0
20260506222438 77 2 4.3 7.8 0.00 0.00 0.00 44 1017.1
20260506221939 77 324 1.7 8.7 0.00 0.00 0.00 44 1017.2
20260506221438 77 331 4.3 8.7 0.00 0.00 0.00 44 1017.3
20260506220938 76 321 1.7 10.4 0.00 0.00 0.00 44 1017.3
20260506220438 76 336 4.3 10.4 0.00 0.00 0.00 44 1017.5
20260506215938 76 332 7.8 10.4 0.00 0.00 0.00 44 1017.5
20260506215438 76 327 6.1 10.4 0.00 0.00 0.00 44 1017.5
20260506214938 76 353 0.9 11.3 0.00 0.00 0.00 45 1017.6
20260506214438 76 349 5.2 11.3 0.00 0.00 0.00 46 1017.7
20260506213938 75 341 2.6 9.6 0.00 0.00 0.00 45 1017.7
20260506213438 76 43 5.2 12.2 0.00 0.00 0.00 45 1017.8
20260506212939 75 54 4.3 12.2 0.00 0.00 0.00 45 1017.8
20260506212438 76 319 4.3 7.8 0.00 0.00 0.00 46 1017.8
20260506211938 76 251 2.6 7.0 0.00 0.00 0.00 46 1017.8
20260506211438 75 241 1.7 7.0 0.00 0.00 0.00 46 1017.9
20260506210939 75 342 2.6 7.0 0.00 0.00 0.00 46 1017.9
20260506210438 75 315 2.6 7.0 0.00 0.00 0.00 47 1018.0
20260506205938 75 325 2.6 7.0 0.00 0.00 0.00 47 1018.0
20260506205438 75 320 3.5 7.0 0.00 0.00 0.00 47 1018.0
20260506204938 75 271 3.5 7.0 0.00 0.00 0.00 48 1018.0
20260506204438 74 314 3.5 7.0 0.00 0.00 0.00 48 1018.0
20260506203938 74 269 4.3 7.0 0.00 0.00 0.00 49 1018.0
20260506203438 74 38 2.6 7.0 0.00 0.00 0.00 48 1018.1
20260506202520 73 333 4.3 11.3 0.00 0.00 0.00 51 1018.2
20260506202020 73 23 6.1 11.3 0.00 0.00 0.00 49 1018.3
20260506201520 73 246 0.9 7.0 0.00 0.00 0.00 50 1018.4
20260506201021 73 168 2.6 8.7 0.00 0.00 0.00 50 1018.4
20260506200520 73 103 3.5 8.7 0.00 0.00 0.00 51 1018.5
20260506200020 73 47 2.6 5.2 0.00 0.00 0.00 51 1018.6
20260506195059 72 23 4.3 8.7 0.00 0.00 0.00 52 1018.7
20260506194558 72 284 6.1 8.7 0.00 0.00 0.00 50 1018.8
20260506194058 72 290 4.3 8.7 0.00 0.00 0.00 51 1018.8
20260506193558 72 0 0.0 6.1 0.00 0.00 0.00 51 1018.9
20260506193058 72 42 2.6 6.1 0.00 0.00 0.00 51 1019.0
20260506192558 71 327 0.9 6.1 0.00 0.00 0.00 52 1019.1
20260506192058 71 76 3.5 6.1 0.00 0.00 0.00 53 1019.2
20260506191558 71 88 1.7 7.0 0.00 0.00 0.00 54 1019.3
20260506191058 70 322 3.5 7.0 0.00 0.00 0.00 54 1019.4
20260506190558 70 270 3.5 6.1 0.00 0.00 0.00 55 1019.4
20260506190059 70 319 2.6 6.1 0.00 0.00 0.00 55 1019.5
20260506185558 70 344 1.7 6.1 0.00 0.00 0.00 57 1019.6
20260506185058 70 20 2.6 6.1 0.00 0.00 0.00 57 1019.6
20260506184559 69 247 1.7 6.1 0.00 0.00 0.00 55 1019.7
20260506184059 69 288 3.5 7.0 0.00 0.00 0.00 57 1019.8
20260506183558 69 300 1.7 11.3 0.00 0.00 0.00 57 1019.8
20260506183100 69 294 7.0 11.3 0.00 0.00 0.00 58 1019.8
20260506182558 69 244 0.9 6.1 0.00 0.00 0.00 59 1019.9
20260506182058 68 277 0.9 6.1 0.00 0.00 0.00 59 1020.1
20260506181558 68 309 0.9 4.3 0.00 0.00 0.00 60 1020.1
20260506181058 68 32 1.7 9.6 0.00 0.00 0.00 60 1020.2
20260506180558 68 321 4.3 9.6 0.00 0.00 0.00 61 1020.3
20260506180059 67 269 0.9 7.8 0.00 0.00 0.00 62 1020.3
20260506175558 67 328 4.3 7.8 0.00 0.00 0.00 61 1020.4
20260506175058 67 253 3.5 7.8 0.00 0.00 0.00 62 1020.4
20260506174559 66 14 0.9 7.0 0.00 0.00 0.00 62 1020.5
20260506174058 66 260 2.6 7.8 0.00 0.00 0.00 63 1020.5
20260506173558 66 277 2.6 7.8 0.00 0.00 0.00 64 1020.6
20260506173058 66 310 4.3 7.8 0.00 0.00 0.00 65 1020.6
20260506172559 65 169 0.9 7.0 0.00 0.00 0.00 65 1020.7
20260506172058 65 317 1.7 9.6 0.00 0.00 0.00 65 1020.8
20260506171058 65 316 2.6 6.1 0.00 0.00 0.00 66 1020.7
20260506170558 65 0 0.0 7.8 0.00 0.00 0.00 66 1020.7
20260506170059 65 308 3.5 7.8 0.00 0.00 0.00 67 1020.8
20260506165558 64 265 1.7 7.0 0.00 0.00 0.00 67 1020.8
20260506165058 64 277 0.9 7.0 0.00 0.00 0.00 68 1020.8
20260506164507 64 295 2.6 7.8 0.00 0.00 0.00 68 1020.8
20260506164006 64 292 3.5 7.0 0.00 0.00 0.00 69 1020.8
20260506163506 63 42 1.7 7.0 0.00 0.00 0.00 69 1020.9
20260506163006 63 18 3.5 6.1 0.00 0.00 0.00 70 1020.9
20260506162506 63 21 1.7 5.2 0.00 0.00 0.00 71 1021.1
20260506162007 63 232 1.7 5.2 0.00 0.00 0.00 70 1021.1
20260506161506 63 344 0.9 4.3 0.00 0.00 0.00 70 1021.1
20260506160938 63 349 1.7 4.3 0.00 0.00 0.00 71 1021.1
20260506160438 62 356 0.9 4.3 0.00 0.00 0.00 72 1021.2
20260506155938 62 316 0.9 4.3 0.00 0.00 0.00 72 1021.2
20260506155438 61 0 0.0 5.2 0.00 0.00 0.00 73 1021.2
20260506154938 61 267 2.6 6.1 0.00 0.00 0.00 73 1021.2
20260506154438 61 304 1.7 6.1 0.00 0.00 0.00 74 1021.2
20260506153938 61 329 2.6 6.1 0.00 0.00 0.00 74 1021.2
20260506153438 60 291 2.6 6.1 0.00 0.00 0.00 74 1021.2
20260506152939 60 293 2.6 6.1 0.00 0.00 0.00 75 1021.2
20260506151938 60 304 3.5 6.1 0.00 0.00 0.00 75 1021.3
20260506151404 60 297 3.5 7.0 0.00 0.00 0.00 75 1021.3
20260506150404 59 268 5.2 7.0 0.00 0.00 0.00 75 1021.4
20260506145904 59 308 2.6 7.0 0.00 0.00 0.00 76 1021.3
20260506145405 59 310 2.6 5.2 0.00 0.00 0.00 77 1021.4
20260506144904 59 310 0.9 5.2 0.00 0.00 0.00 78 1021.2
20260506144404 58 0 0.0 0.0 0.00 0.00 0.00 79 1021.2
20260506143404 57 0 0.0 0.0 0.00 0.00 0.00 80 1021.3
20260506142905 57 0 0.0 0.0 0.00 0.00 0.00 80 1021.3
20260506142404 57 0 0.0 0.0 0.00 0.00 0.00 81 1021.2
20260506141904 57 0 0.0 0.0 0.00 0.00 0.00 80 1021.1
20260506141405 57 0 0.0 0.0 0.00 0.00 0.00 81 1021.1
20260506140404 56 0 0.0 0.0 0.00 0.00 0.00 83 1020.9
20260506135904 55 0 0.0 0.0 0.00 0.00 0.00 84 1020.8
20260506135404 55 0 0.0 0.0 0.00 0.00 0.00 84 1020.7
20260506134904 54 0 0.0 0.0 0.00 0.00 0.00 85 1020.6
20260506134404 54 0 0.0 0.0 0.00 0.00 0.00 84 1020.5
20260506133405 53 0 0.0 0.9 0.00 0.00 0.00 84 1020.5
20260506132904 53 0 0.0 4.3 0.00 0.00 0.00 84 1020.4
20260506132405 53 100 1.7 4.3 0.00 0.00 0.00 83 1020.3
20260506131904 53 120 0.9 2.6 0.00 0.00 0.00 84 1020.3
20260506131404 53 118 0.9 2.6 0.00 0.00 0.00 83 1020.2
20260506130404 54 0 0.0 3.5 0.00 0.00 0.00 83 1020.2
20260506125905 54 0 0.0 3.5 0.00 0.00 0.00 83 1020.3
20260506125404 54 196 0.9 4.3 0.00 0.00 0.00 84 1020.2
20260506124904 54 218 1.7 5.2 0.00 0.00 0.00 84 1020.0
20260506124404 54 225 3.5 5.2 0.00 0.00 0.00 84 1020.0
20260506123645 53 237 3.5 5.2 0.00 0.00 0.00 84 1019.9
20260506123145 53 250 2.6 5.2 0.00 0.00 0.00 83 1019.9
20260506122644 53 242 3.5 5.2 0.00 0.00 0.00 83 1019.9
20260506122145 54 249 2.6 3.5 0.00 0.00 0.00 82 1019.8
20260506121644 54 248 2.6 3.5 0.00 0.00 0.00 81 1019.8
20260506121144 54 248 1.7 3.5 0.00 0.00 0.00 80 1019.8
20260506120012 55 265 2.6 7.0 0.00 0.00 0.00 80 1019.8
20260506115512 55 275 5.2 7.0 0.00 0.00 0.00 80 1019.8
20260506115014 55 268 5.2 7.8 0.00 0.00 0.00 79 1019.8
20260506114012 55 248 7.0 7.8 0.00 0.00 0.00 80 1019.8
20260506113512 55 250 5.2 7.0 0.00 0.00 0.00 80 1019.9
20260506113013 55 247 5.2 7.8 0.00 0.00 0.00 79 1019.8
20260506112512 55 239 4.3 8.7 0.00 0.00 0.00 79 1019.8
20260506112012 55 268 7.0 8.7 0.00 0.00 0.00 79 1019.7
20260506111514 55 256 6.1 7.0 0.00 0.00 0.00 79 1019.6
20260506111012 55 254 4.3 6.1 0.00 0.00 0.00 79 1019.7
20260506110512 55 266 5.2 6.1 0.00 0.00 0.00 79 1019.7
20260506105933 55 255 5.2 7.0 0.00 0.00 0.00 79 1019.7
20260506105432 55 241 4.3 7.0 0.00 0.00 0.00 79 1019.7
20260506104822 55 239 4.3 6.1 0.00 0.00 0.00 79 1019.5
20260506104322 54 245 2.6 6.1 0.00 0.00 0.00 79 1019.6
20260506103822 55 256 2.6 7.8 0.00 0.00 0.00 79 1019.5
20260506103321 54 248 5.2 7.8 0.00 0.00 0.00 79 1019.3
20260506102821 54 241 5.2 7.8 0.00 0.00 0.00 80 1019.3
20260506102322 53 243 6.1 7.8 0.00 0.00 0.00 81 1019.4
20260506101821 53 243 4.3 7.0 0.00 0.00 0.00 82 1019.3
20260506101321 52 239 3.5 6.1 0.00 0.00 0.00 81 1019.3
20260506100822 52 245 1.7 4.3 0.00 0.00 0.00 80 1019.2
20260506100322 52 254 1.7 6.1 0.00 0.00 0.00 80 1019.2
20260506095821 52 223 4.3 6.1 0.00 0.00 0.00 81 1019.1
20260506095055 52 259 2.6 6.1 0.00 0.00 0.00 81 1019.2
20260506094554 51 249 4.3 8.7 0.00 0.00 0.00 82 1019.0
20260506094054 51 312 5.2 8.7 0.00 0.00 0.00 80 1019.1
20260506093554 52 229 0.9 2.6 0.00 0.00 0.00 79 1019.0
20260506093058 53 229 0.9 3.5 0.00 0.00 0.00 79 1019.0
20260506092554 53 229 2.6 3.5 0.00 0.00 0.00 79 1018.9
20260506092054 53 231 1.7 3.5 0.00 0.00 0.00 80 1018.9
20260506091554 53 286 1.7 2.6 0.00 0.00 0.00 81 1018.9
20260506091054 53 327 1.7 2.6 0.00 0.00 0.00 82 1018.9
20260506090554 52 0 0.0 0.0 0.00 0.00 0.00 82 1018.9
20260506090054 52 0 0.0 0.0 0.00 0.00 0.00 81 1018.9
20260506085554 52 0 0.0 0.0 0.00 0.00 0.00 82 1018.9
20260506085054 51 0 0.0 0.0 0.00 0.00 0.00 81 1018.9
20260506084554 52 0 0.0 0.0 0.00 0.00 0.00 80 1018.9
20260506083624 52 0 0.0 0.0 0.00 0.00 0.00 80 1018.8
20260506083124 52 0 0.0 0.0 0.00 0.00 0.00 80 1018.7
20260506082624 53 0 0.0 0.0 0.00 0.00 0.00 81 1018.7
20260506082124 53 0 0.0 1.7 0.00 0.00 0.00 80 1018.8
20260506081625 53 0 0.0 1.7 0.00 0.00 0.00 80 1018.7
20260506081124 53 187 0.9 1.7 0.00 0.00 0.00 80 1018.7
20260506080628 53 187 0.9 1.7 0.00 0.00 0.00 81 1018.7
20260506080124 53 0 0.0 0.0 0.00 0.00 0.00 81 1018.7
20260506073124 53 0 0.0 1.7 0.00 0.00 0.00 80 1018.6
20260506072624 53 187 0.9 1.7 0.00 0.00 0.00 79 1018.6
20260506072124 54 0 0.0 2.6 0.00 0.00 0.00 78 1018.6
20260506071625 54 186 0.9 2.6 0.00 0.00 0.00 78 1018.5
20260506071124 54 186 1.7 4.3 0.00 0.00 0.00 78 1018.4
20260506070625 54 187 1.7 4.3 0.00 0.00 0.00 79 1018.3
20260506070124 54 185 1.7 3.5 0.00 0.00 0.00 79 1018.3
20260506062124 55 199 0.9 2.6 0.00 0.00 0.00 79 1017.7
20260506061209 55 0 0.0 1.7 0.00 0.00 0.00 78 1017.6
20260506060709 55 199 0.9 3.5 0.00 0.00 0.00 78 1017.6
20260506051209 59 0 0.0 0.0 0.00 0.00 0.00 73 1017.5
20260506050708 59 0 0.0 0.0 0.00 0.00 0.00 73 1017.5
20260506050208 59 0 0.0 0.0 0.00 0.00 0.00 72 1017.4
20260506044249 61 0 0.0 1.7 0.00 0.00 0.00 70 1017.2
20260506043748 61 0 0.0 1.7 0.00 0.00 0.00 68 1017.2
20260506043210 61 201 0.9 4.3 0.00 0.00 0.00 66 1017.1
20260506042708 61 204 1.7 5.2 0.00 0.00 0.00 66 1017.0
20260506042209 61 212 3.5 5.2 0.00 0.00 0.00 67 1016.9
20260506041708 61 212 2.6 4.3 0.00 0.00 0.00 67 1016.9
20260506041207 61 206 2.6 4.3 0.00 0.00 0.00 68 1016.8
20260506040708 61 214 2.6 4.3 0.00 0.00 0.00 68 1016.8
20260506040208 61 227 1.7 4.3 0.00 0.00 0.00 69 1016.7
20260506035708 61 217 1.7 2.6 0.00 0.00 0.00 71 1016.5
20260506035208 61 0 0.0 0.9 0.00 0.00 0.00 72 1016.5
20260506034708 61 0 0.0 0.9 0.00 0.00 0.00 72 1016.5
20260506034209 61 0 0.0 1.7 0.00 0.00 0.00 72 1016.4
20260506033707 61 0 0.0 2.6 0.00 0.00 0.00 72 1016.4
20260506033208 62 182 0.9 3.5 0.00 0.00 0.00 73 1016.4
20260506032708 62 182 1.7 3.5 0.00 0.00 0.00 73 1016.2
20260506032207 62 177 0.9 3.5 0.00 0.00 0.00 73 1016.1
20260506031707 62 96 0.9 1.7 0.00 0.00 0.00 73 1016.0
20260506031101 62 0 0.0 1.7 0.00 0.00 0.00 72 1016.0
20260506030428 62 0 0.0 2.6 0.00 0.00 0.00 71 1015.9
20260506025929 63 95 0.9 2.6 0.00 0.00 0.00 71 1015.8
20260506024123 63 0 0.0 1.7 0.00 0.00 0.00 68 1015.6
20260506023623 63 0 0.0 1.7 0.00 0.00 0.00 68 1015.6
20260506023123 63 0 0.0 1.7 0.00 0.00 0.00 67 1015.5
20260506022623 63 0 0.0 1.7 0.00 0.00 0.00 68 1015.4
20260506022123 63 0 0.0 0.9 0.00 0.00 0.00 69 1015.4
20260506021623 63 0 0.0 1.7 0.00 0.00 0.00 69 1015.4
20260506021123 63 0 0.0 2.6 0.00 0.00 0.00 69 1015.4
20260506020623 63 0 0.0 2.6 0.00 0.00 0.00 70 1015.3
20260506020123 63 0 0.0 3.5 0.00 0.00 0.00 70 1015.3
20260506015623 63 108 1.7 5.2 0.00 0.00 0.00 70 1015.3
20260506015123 63 98 0.9 5.2 0.00 0.00 0.00 69 1015.3
20260506014623 63 102 2.6 7.0 0.00 0.00 0.00 69 1015.2
20260506014123 64 100 3.5 7.0 0.00 0.00 0.00 68 1015.2
20260506013623 64 103 3.5 7.8 0.00 0.00 0.00 68 1015.2
20260506013123 64 84 1.7 7.8 0.00 0.00 0.00 68 1015.2
20260506012524 64 94 3.5 7.0 0.00 0.00 0.00 67 1015.1
20260506012024 65 86 2.6 6.1 0.00 0.00 0.00 66 1015.1
20260506011017 66 112 1.7 3.5 0.00 0.00 0.00 60 1015.0
20260506010518 66 187 0.9 3.5 0.00 0.00 0.00 57 1015.0
20260506010016 66 240 1.7 3.5 0.00 0.00 0.00 56 1015.0
20260506005517 66 255 1.7 7.0 0.00 0.00 0.00 56 1015.0
20260506005016 66 220 3.5 7.0 0.00 0.00 0.00 55 1015.0